www.pogodaiklimat.ru

Погода и климат >> Архив погоды >> Македония >> Прилеп


ПОГОДА в Прилепе

  • Прогноз погоды в Прилепе
  • Монитор погоды в Прилепе

АРХИВ ПОГОДЫ в Прилепе

Время (UTC), дата Ветер
(напр.,м/с)
 
Видим.   Явления Облачность Т
(С)
Тd
(С)
f
(%)
Тe
(С)
Тes
(С)
Комфортность P
(гПа)
Po
(гПа)
Тmin
(С)
Tmax
(С)
R
(мм)
R24
(мм)
S
(см)
12 18.06 ЮЗ 1 20 км гроза без осадков 6/5 1000 м
[Cb calv Ci sp]
+26.1 +16.2 54 +29 +40 жарко 1012.1 938.2
15 18.06 штиль 0 20 км 5/4 1000 м
[Cb calv Ci sp]
+25.6 +15.0 52 +28 +33 жарко 1010.8 936.9
18 18.06 СВ 1 20 км слаб. дождь 8/8 1000 м
[Cb calv]
+18.1 +14.7 81 +19 +19 1013.7 937.7 +26.7 6
21 18.06 штиль 0 20 км {дождь} 8/8 1000 м
[Sc]
+17.6 +12.5 72 +18 +18 1014.8 938.7
00 19.06 штиль 0 20 км 4/0
[Ci sp]
+16.6 +14.0 85 +16 +16 1014.6 938.5 0.9
03 19.06 штиль 0 10 км 5/3 1000 м
[Sc Ac trans]
+15.0 +13.5 91 +15 +15 1014.4 937.6
06 19.06 штиль 0 20 км 6/0 2000 м
[Ac trans Ci sp]
+19.0 +15.0 78 +20 +26 1013.8 938.0 +14.9 0.9
09 19.06 штиль 0 20 км 6/4 1000 м
[Cu med, cong Ci sp]
+24.0 +16.6 63 +27 +41 жарко 1011.8 937.3
12 19.06 В 1 20 км 8/5 1000 м
[Cb calv Ci sp]
+26.4 +15.6 51 +29 +39 жарко 1010.0 936.2
15 19.06 штиль 0 20 км слаб. морось 6/6 1000 м
[Cb calv]
+23.0 +16.8 68 +28 +31 душно 1010.6 936.0
18 19.06 штиль 0 20 км 8/5 1000 м
[Cu Sc Ci sp]
+21.4 +13.6 61 +24 +24 комфорт 1011.1 936.0 +27.0 0.4
21 19.06 штиль 0 20 км 4/0 2000 м
[Ac trans]
+18.6 +14.5 77 +19 +19 1012.7 937.0
00 20.06 штиль 0 20 км 4/0 2000 м
[Ac trans]
+18.0 +14.9 82 +18 +18 1012.3 936.4
06 20.06 штиль 0 20 км 4/1 1000 м
[Cu hum Ac trans]
+17.8 +17.1 96 +18 +24 1012.7 937.0 +16.0
09 20.06 ЮЗ 1 20 км 5/4 1000 м
[Cu med, cong Ac trans]
+24.2 +15.8 59 +27 +39 жарко 1011.4 937.0
12 20.06 штиль 0 20 км дождь {гроза} 9/9 1000 м
[Cb cap]
+25.8 +15.6 53 +29 +31 душно 1009.8 936.0 1
15 20.06 штиль 0 20 км {дождь, гроза} 9/8 1000 м
[Cu Sc Ci sp]
+24.0 +14.9 57 +27 +28 жарко 1010.1 935.8
18 20.06 штиль 0 20 км 8/6 1000 м
[Cu Sc Ac trans]
+21.6 +17.8 79 +26 +26 душно 1011.5 936.9 +26.0 2
21 20.06 штиль 0 20 км {дождь, гроза} 3/0
[Ci sp]
+18.8 +17.0 89 +20 +20 1013.6 938.1
00 21.06 штиль 0 20 км ясно +16.7 +15.6 93 +17 +17 1014.4 938.1 0.5
03 21.06 штиль 0 20 км ясно +14.6 +13.6 94 +14 +14 1014.9 938.1
06 21.06 штиль 0 20 км ясно +19.1 +16.4 84 +21 +29 комфорт 1015.0 939.4 +13.8 0.5
09 21.06 ЮЗ 1 20 км 1/1 1000 м
[Cu Sc]
+24.0 +15.7 60 +27 +46 жарко 1014.1 939.5
12 21.06 ЮЗ 1 20 км 3/3 1000 м
[Cu Sc]
+27.1 +13.1 42 +29 +44 жарко 1012.0 938.3
15 21.06 СВ 1 20 км 4/3 1000 м
[Cu Sc Ci sp]
+27.6 +12.0 38 +29 +34 жарко 1010.9 937.5
18 21.06 СВ 1 20 км 8/3 1000 м
[Cu Sc Ac trans Ci sp]
+24.5 +10.5 41 +26 +26 жарко 1013.4 938.9 +28.8
21 21.06 штиль 0 10 км ясно +21.1 +14.0 64 +24 +24 комфорт 1015.2 939.8
00 22.06 штиль 0 10 км 1/0
[Ci sp]
+18.7 +14.0 74 +19 +19 1015.9 940.0
03 22.06 штиль 0 20 км ясно +16.1 +13.6 85 +16 +16 940.0
06 22.06 штиль 0 20 км ясно +20.6 +15.6 73 +23 +31 комфорт 1016.3 940.8 +15.9
09 22.06 штиль 0 20 км 3/1 1000 м
[Cu hum]
+26.8 +17.5 57 +31 +50 душно 1014.6 940.9
12 22.06 Ю 1 20 км 4/4 1000 м
[]
+28.6 +15.1 44 +31 +44 жарко 1013.7 940.4
15 22.06 штиль 0 20 км 8/1 1000 м
[Cu hum Cs]
+29.9 +14.5 39 +32 +39 жарко 1011.6 938.6
18 22.06 штиль 0 20 км 8/0 2000 м
[Ac trans Cs]
+26.0 +16.2 55 +29 +29 душно 1012.4 938.5 +31.0
21 22.06 штиль 0 10 км ясно +22.2 +14.0 60 +25 +25 комфорт 1014.6 939.5
00 23.06 штиль 0 10 км ясно +19.7 +14.7 73 +21 +21 комфорт 1015.2 939.5
03 23.06 штиль 0 20 км ясно +18.0 +15.8 87 +18 +18 1015.7 939.5
06 23.06 штиль 0 20 км 6/0 2000 м
[Ac trans Ci sp]
+21.2 +16.6 75 +25 +30 комфорт 1014.6 939.5 +17.2
09 23.06 ЮЗ 1 20 км 6/1 1000 м
[Cu hum Ac As Ci sp]
+27.4 +16.8 52 +31 +45 душно 1012.0 938.5
12 23.06 Ю 1 20 км 8/0 2000 м
[Ac trans Cs]
+29.2 +16.5 46 +33 +48 очень
душно
1011.2 938.3
15 23.06 штиль 0 20 км 9/0 2000 м
[Ac As Ci sp]
+28.5 +15.1 44 +31 +36 душно 1009.8 936.7
18 23.06 штиль 0 20 км 4/4 1000 м
[Cu Sc]
+26.5 +16.0 52 +30 +30 душно 1009.9 936.4 +30.1
21 23.06 штиль 0 20 км ясно +22.0 +12.4 54 +24 +24 комфорт 1012.5 937.5
00 24.06 штиль 0 20 км ясно +18.9 +11.5 62 +20 +20 1013.3 937.5
03 24.06 штиль 0 20 км 4/0
[Ci sp]
+16.4 +12.5 78 +16 +16 1013.3 937.1
06 24.06 штиль 0 20 км 5/0 2000 м
[Ac trans Ci sp]
+21.4 +12.1 55 +24 +30 комфорт 1012.8 937.6 +16.2
09 24.06 СВ 2 20 км 6/4 1000 м
[Cu med, cong Ac trans]
+25.4 +13.6 48 +28 +36 жарко 1011.8 937.6
12 24.06 С 1 20 км 8/5 1000 м
[Cb calv Ac trans]
+27.0 +13.1 42 +29 +36 жарко 1009.5 936.0
15 24.06 СВ 3 10 км гроза, ливневой дождь [макс. диам. градин 1 мм] 10/10 1000 м
[Cb cap]
+17.0 +15.5 91 +17 +17 1014.9 938.5
18 24.06 Ю 1 10 км в посл. час дождь {гроза} 9/0 2000 м
[Ac As]
+16.4 +14.3 87 +17 +17 1015.6 939.0 +28.2 27
21 24.06 штиль 0 10 км 5/0 2000 м
[Ac trans]
+16.6 +16.1 97 +16 +16 1016.3 940.0
00 25.06 штиль 0 10 км 8/3 1000 м
[Sc Ac trans]
+17.6 +15.0 85 +18 +18 1016.9 940.6
03 25.06 штиль 0 10 км 10/10 1000 м
[Sc]
+17.2 +14.1 82 +17 +17 1017.7 941.2
06 25.06 штиль 0 20 км 9/8 1000 м
[Sc Ac trans]
+18.4 +15.4 83 +19 +20 1018.4 942.0 +16.2
09 25.06 С 1 20 км 5/5 1000 м
[Cu Sc]
+22.7 +16.2 67 +27 +38 душно 1017.3 942.3

 

Местоположение метеостанции Прилеп (Македония): широта 41.33 долгота 21.57 высота над уровнем моря 674 м.

В архиве по умолчанию представлена погода в Прилепе за последнюю неделю. Архивные данные за месяц целиком и за предыдущие месяцы, начиная с января 2011 года, Вы можете получить, выбрав интересующий диапазон дат из раскрывающегося списка и нажав кнопку "Ввод!".


*Определитесь, кто Вы:
робот инопланетянин человек

Внимание! Время в таблицах - всемирное. Для получения местного времени необходимо прибавить поправку, которая равна 1 ч.

Смотрите также архив погоды в соседних городах и на ближайших метеорологических станциях:

Погода в Тополчани (Македония) (15 км)
Погода в Битоле (Македония) (35 км)
Погода в Демир-Капия (Македония) (58 км)
Погода во Флорине (Греция) (63 км)
Погода в Гуришках (Македония) (68 км)
Погода в Охриде (Македония) (68 км)
Погода в Преторе (Македония) (68 км)
Погода в Охрид аэропорту (Македония) (69 км)
Погода в Штипе (Македония) (69 км)
Погода в Скопье (Македония) (70 км)

Пояснения к столбцам:

Ветер - указаны скорость ветра в м/с - средняя за 10 мин, порывы в срок и между сроками (в фигурных скобках) и направление, откуда дует ветер: С - северный, СВ - северо-восточный, В - восточный, ЮВ - юго-восточный, Ю - южный, ЮЗ - юго-западный, З - западный, СЗ - северо-западный.
Видимость - горизонтальная дальность видимости в метрах или километрах. При видимости от 1 до 10 км при отсутствии осадков обычно наблюдается дымка, при ухудшении видимости до 1 км и менее - туман. В сухую погоду видимость может ухудшаться дымом, пылью или мглою.
Явления - указаны атмосферные явления, наблюдавшиеся в срок или в последний час перед сроком; фигурными скобками обозначены явления, наблюдавшиеся между сроками (за 1-3 часа до срока); квадратными скобками обозначены град или гололедные отложения с указанием их диаметра в мм.
Облачность - указаны через наклонную черту общая и нижняя облачность в баллах и высота нижней границы облаков в метрах; квадратными скобками обозначены формы облаков: Ci - перистые, Cs - перисто-слоистые, Cc - перисто-кучевые, Ac - высококучевые, As - высокослоистые, Sc - слоисто-кучевые, Ns - слоисто-дождевые, Cu - кучевые, Cb - кучево-дождевые. Подробнее классификацию облаков см. в Атласе облаков (PDF).
T - Температура воздуха - температура, измеренная на высоте 2 м над землей.
Td - Температура точки росы - температура, при понижении до которой содержащийся в воздухе водяной пар достигнет насыщения.
f - Относительная влажность воздуха - влажноcть воздуха, измеренная на высоте 2 м над землей.
Te - Эффективная температура - температура, которую ощущает одетый по сезону человек в тени. Характеристика душности погоды. При расчете учитывается влияние влажности воздуха и скорости ветра на теплоощущения человека.
Tes - Эффективная температура на солнце - температура, которую ощущает человек, с поправкой на солнечный нагрев. Характеристика знойности погоды. Зависит от высоты солнца над горизонтом, облачности и скорости ветра. Ночью, в пасмурную погоду, а также при ветре 12 м/с и более поправка равна нулю.
P - Атмосферное давление - приведенное к уровню моря атмосферное давление.
Po - Атмосферное давление - измеренное на уровне метеостанции атмосферное давление.
Tmin - Минимальная температура - минимум температуры воздуха на высоте 2 м над землей.
Tmax - Максимальная температура - максимум температуры воздуха на высоте 2 м над землей.
R - Количество осадков - Количество выпавших осадков за период времени, мм. При наведении курсора мыши на число - период времени, за который выпало указанное количество осадков.
R24 - Количество осадков - Количество выпавших осадков за 24 часа, мм.
S - Снежный покров - Высота снежного покрова, см. При наведении курсора мыши на число - состояние снежного покрова и степень покрытия местности в баллах.